Weather reports worldwide

Advertisment
Wakefield, va, United States of America (2074226): temperature & dewpoint: 14.02.2020 22:00:00 - 20.02.2020 22:00:00 (EST)Wakefield, va, United States of America (2074226): wind speed: 14.02.2020 22:00:00 - 20.02.2020 22:00:00 (EST)Wakefield, va, United States of America (2074226): wind direction: 14.02.2020 22:00:00 - 20.02.2020 22:00:00 (EST)Wakefield, va, United States of America (2074226): reduced air pressure: 14.02.2020 22:00:00 - 20.02.2020 22:00:00 (EST)Wakefield, va, United States of America (2074226): visibility: 14.02.2020 22:00:00 - 20.02.2020 22:00:00 (EST)Wakefield, va, United States of America (2074226): precipitation: 14.02.2020 22:00:00 - 20.02.2020 22:00:00 (EST)
Date & Time tt [°C] td [°C] ff [km/h] ff [kn] dd ppp [hPa] vv [km] rr [mm]
20.02.2020 22:00:00 0,0 -0,6 0 0 N 1028,2 1,6 1,0
20.02.2020 21:00:00 0,0 -0,6 5 3 - 1028,7 1,2 2,0
20.02.2020 20:00:00 0,0 -1,1 5 3 - 1029,0 1,2 2,0
20.02.2020 19:00:00 0,0 -1,1 11 6 NNE 1029,3 1,2 0,5
20.02.2020 18:00:00 0,6 -0,6 5 3 NNE 1028,7 1,2 0,3
20.02.2020 17:00:00 0,6 -0,6 0 0 N 1028,7 0,8 0,3
20.02.2020 16:00:00 0,6 0,0 0 0 N 1028,6 0,8 0,3
20.02.2020 15:00:00 1,1 0,0 5 3 - 1029,2 1,2 0,5
20.02.2020 14:00:00 3,9 -2,8 13 7 ENE 1029,7 13 0,0
20.02.2020 13:00:00 5,6 -4,4 8 4 ENE 1029,9 16 -
20.02.2020 12:00:00 5,6 -4,4 11 6 ENE 1030,3 16 -
20.02.2020 11:00:00 5,6 -2,8 9 5 ENE 1031,3 16 -
20.02.2020 10:00:00 5,0 -2,2 9 5 ENE 1030,7 16 -
20.02.2020 09:00:00 4,4 -1,1 0 0 N 1031,8 16 -
20.02.2020 08:00:00 3,3 -1,7 0 0 N 1031,0 16 -
20.02.2020 07:00:00 1,7 -1,1 0 0 N 1030,2 16 -
20.02.2020 06:00:00 2,2 -2,2 0 0 N 1030,4 16 -
20.02.2020 05:00:00 1,7 -2,8 0 0 N 1030,0 16 -
20.02.2020 04:00:00 1,1 -1,7 0 0 N 1029,6 16 -
20.02.2020 03:00:00 0,0 -1,7 0 0 N 1030,0 16 -
20.02.2020 02:00:00 0,0 -1,7 0 0 N 1030,0 16 -
20.02.2020 01:00:00 0,0 -1,7 0 0 N 1029,8 16 -
20.02.2020 00:00:00 0,0 -1,1 0 0 N 1030,0 16 -
19.02.2020 23:00:00 -0,6 -2,2 0 0 N 1030,4 16 -
19.02.2020 22:00:00 0,0 -1,7 0 0 N 1030,4 16 -
19.02.2020 21:00:00 1,1 -0,6 0 0 N 1030,2 16 -
19.02.2020 20:00:00 1,7 0,0 0 0 N 1029,8 16 -
19.02.2020 19:00:00 3,3 0,6 0 0 N 1029,6 16 -
19.02.2020 18:00:00 6,7 0,6 0 0 N 1028,8 16 -
19.02.2020 17:00:00 9,4 -1,7 0 0 N 1028,2 16 -
19.02.2020 16:00:00 10,6 -4,4 5 3 N 1027,9 16 -
19.02.2020 15:00:00 10,6 -4,4 5 3 - 1027,6 16 -
19.02.2020 14:00:00 10,0 -5,0 9 5 - 1027,7 16 -
19.02.2020 13:00:00 10,0 -3,3 8 4 - 1027,8 16 -
19.02.2020 12:00:00 10,0 -2,2 11 6 - 1028,2 16 -
19.02.2020 11:00:00 9,4 0,6 8 4 N 1027,3 16 -
19.02.2020 10:00:00 8,9 2,8 11 6 - 1026,4 16 -
19.02.2020 09:00:00 8,9 3,9 5 3 - 1025,5 16 -
19.02.2020 08:00:00 8,3 3,3 8 4 NE 1024,7 16 -
19.02.2020 07:00:00 8,3 4,4 11 6 N 1024,3 16 0,3
19.02.2020 06:00:00 9,4 7,8 11 6 - 1021,9 10 0,3
19.02.2020 05:00:00 11,1 8,9 15 8 NNE 1021,0 16 0,3
19.02.2020 04:00:00 11,7 10,0 5 3 - 1019,6 11 0,3
19.02.2020 03:00:00 12,2 11,1 8 4 NNW 1018,5 4,0 0,3
19.02.2020 02:00:00 12,2 11,7 0 0 N 1018,0 6 1,3
19.02.2020 01:00:00 11,7 11,1 0 0 N 1018,3 4,8 1,5
19.02.2020 00:00:00 12,2 11,1 5 3 WSW 1017,8 8 1,0
18.02.2020 23:00:00 13,3 10,0 8 4 SSW 1018,1 11 0,0
18.02.2020 22:00:00 13,3 9,4 5 3 - 1018,1 16 -
18.02.2020 21:00:00 13,3 8,9 13 7 SSW 1018,4 16 -
18.02.2020 20:00:00 12,8 8,9 8 4 S 1018,3 16 -
18.02.2020 19:00:00 13,3 8,3 5 3 SSW 1018,4 16 -
18.02.2020 18:00:00 13,9 8,3 0 0 N 1017,5 16 -
18.02.2020 17:00:00 15,0 8,9 5 3 - 1017,8 16 -
18.02.2020 16:00:00 15,6 7,8 9 5 SW 1018,2 16 -
18.02.2020 15:00:00 16,7 7,8 8 4 SSE 1018,5 16 -
18.02.2020 14:00:00 15,6 7,2 5 3 SW 1019,9 16 -
18.02.2020 13:00:00 13,3 7,8 8 4 S 1021,0 16 -
18.02.2020 12:00:00 13,3 8,9 11 6 SW 1022,7 16 -
18.02.2020 11:00:00 10,0 8,9 9 5 S 1023,4 15 -
18.02.2020 10:00:00 7,8 6,7 0 0 N 1024,1 6 -
18.02.2020 09:00:00 5,0 4,4 0 0 N 1023,9 0,4 -
18.02.2020 08:00:00 3,3 2,8 0 0 N 1024,3 4,8 -
18.02.2020 07:00:00 1,1 0,6 0 0 N 1024,0 0,4 -
18.02.2020 06:00:00 1,1 0,6 0 0 N 1023,8 0,4 -
18.02.2020 05:00:00 1,1 0,0 0 0 N 1024,4 0,4 -
18.02.2020 04:00:00 1,1 0,0 0 0 N 1024,6 11 -
18.02.2020 03:00:00 1,1 0,0 0 0 N 1024,8 6 -
18.02.2020 02:00:00 1,1 0,0 0 0 N 1024,9 8 -
18.02.2020 01:00:00 1,1 0,0 0 0 N 1025,3 6 -
18.02.2020 00:00:00 1,7 0,6 0 0 N 1025,7 11 -
17.02.2020 23:00:00 2,8 1,1 0 0 N 1025,9 16 -
17.02.2020 22:00:00 3,9 1,7 0 0 N 1025,9 16 -
17.02.2020 21:00:00 4,4 1,7 0 0 N 1026,0 16 -
17.02.2020 20:00:00 5,6 1,7 0 0 N 1025,8 16 -
17.02.2020 19:00:00 7,2 1,7 0 0 N 1025,3 16 -
17.02.2020 18:00:00 10,0 1,1 5 3 E 1024,4 16 -
17.02.2020 17:00:00 12,2 1,1 9 5 E 1023,7 16 -
17.02.2020 16:00:00 13,3 1,1 11 6 NE 1023,5 16 -
17.02.2020 15:00:00 13,3 0,6 15 8 E 1023,4 16 -
17.02.2020 14:00:00 13,9 0,6 15 8 E 1023,6 16 -
17.02.2020 13:00:00 13,3 0,6 9 5 - 1024,2 16 -
17.02.2020 12:00:00 12,8 2,2 8 4 - 1024,2 16 -
17.02.2020 11:00:00 11,7 1,7 11 6 - 1024,0 16 -
17.02.2020 10:00:00 10,0 1,1 15 8 ENE 1023,6 16 -
17.02.2020 09:00:00 8,3 2,2 9 5 - 1023,4 16 -
17.02.2020 08:00:00 3,9 2,2 0 0 N 1022,9 16 -
17.02.2020 07:00:00 2,8 1,1 0 0 N 1021,5 15 -
17.02.2020 06:00:00 4,4 2,8 0 0 N 1020,6 16 -
17.02.2020 05:00:00 6,1 3,3 0 0 N 1019,7 16 -
17.02.2020 04:00:00 6,7 3,9 5 3 N 1018,9 16 0,0
17.02.2020 03:00:00 7,8 3,9 0 0 N 1019,3 16 -
17.02.2020 02:00:00 7,8 3,9 0 0 N 1019,2 16 -
17.02.2020 01:00:00 7,8 3,9 0 0 N 1019,8 16 -
17.02.2020 00:00:00 7,8 3,9 0 0 N 1019,5 16 -
16.02.2020 23:00:00 8,3 3,3 0 0 N 1020,0 16 -
16.02.2020 22:00:00 8,3 3,3 0 0 N 1020,1 16 -
16.02.2020 21:00:00 8,9 2,8 0 0 N 1019,9 16 -
16.02.2020 20:00:00 8,9 1,7 0 0 N 1020,1 16 -
16.02.2020 19:00:00 8,9 2,2 0 0 N 1020,5 16 -
16.02.2020 18:00:00 9,4 2,8 0 0 N 1020,5 16 -
16.02.2020 17:00:00 10,0 1,7 0 0 N 1020,3 16 -
16.02.2020 16:00:00 10,6 1,1 5 3 SSW 1020,8 16 -
16.02.2020 15:00:00 10,6 0,6 9 5 SW 1021,0 16 -
16.02.2020 14:00:00 10,6 0,6 9 5 SSW 1021,0 16 -
16.02.2020 13:00:00 10,0 0,0 9 5 - 1022,1 16 -
16.02.2020 12:00:00 9,4 -0,6 11 6 SSW 1023,5 16 -
16.02.2020 11:00:00 7,8 -1,1 16 9 W 1024,6 16 -
16.02.2020 10:00:00 3,9 -1,7 9 5 SSW 1025,1 16 -
16.02.2020 09:00:00 1,7 -2,2 9 5 SW 1025,8 16 -
16.02.2020 08:00:00 0,0 -2,2 0 0 N 1026,3 16 -
16.02.2020 07:00:00 -0,6 -2,8 0 0 N 1026,0 16 -
16.02.2020 06:00:00 -0,6 -2,8 5 3 S 1026,3 16 -
16.02.2020 05:00:00 -0,6 -2,8 0 0 N 1026,1 16 -
16.02.2020 04:00:00 -0,6 -2,8 5 3 - 1026,6 16 -
16.02.2020 03:00:00 -0,6 -3,3 0 0 N 1027,4 16 -
16.02.2020 02:00:00 -0,6 -3,3 0 0 N 1028,4 16 -
16.02.2020 01:00:00 -0,6 -3,3 0 0 N 1028,1 16 -
16.02.2020 00:00:00 -0,6 -3,3 0 0 N 1029,0 16 -
15.02.2020 23:00:00 -1,1 -3,3 0 0 N 1029,9 16 -
15.02.2020 22:00:00 -1,7 -4,4 0 0 N 1031,0 16 -
15.02.2020 21:00:00 -1,1 -4,4 0 0 N 1031,3 16 -
15.02.2020 20:00:00 0,6 -5,0 0 0 N 1031,5 16 -
15.02.2020 19:00:00 0,0 -5,0 0 0 N 1032,1 16 -
15.02.2020 18:00:00 2,8 -6,1 0 0 N 1031,9 16 -
15.02.2020 17:00:00 4,4 -7,8 8 4 S 1032,2 16 -
15.02.2020 16:00:00 5,0 -7,8 9 5 S 1032,0 16 -
15.02.2020 15:00:00 5,0 -7,8 0 0 N 1033,3 16 -
15.02.2020 14:00:00 4,4 -8,3 5 3 - 1034,1 16 -
15.02.2020 13:00:00 3,3 -7,8 8 4 - 1035,6 16 -
15.02.2020 12:00:00 2,2 -8,9 5 3 - 1036,9 16 -
15.02.2020 11:00:00 2,2 -8,3 9 5 E 1037,4 16 -
15.02.2020 10:00:00 0,6 -8,3 5 3 - 1038,1 16 -
15.02.2020 09:00:00 -0,6 -8,9 5 3 - 1038,2 16 -
15.02.2020 08:00:00 -2,2 -8,9 0 0 N 1037,5 16 -
15.02.2020 07:00:00 -3,9 -9,4 0 0 N 1037,0 16 -
15.02.2020 06:00:00 -3,3 -10,0 5 3 N 1036,3 16 -
15.02.2020 05:00:00 -3,3 -10,0 0 0 N 1036,2 16 -
15.02.2020 04:00:00 -2,8 -10,6 0 0 N 1035,9 16 -
15.02.2020 03:00:00 -2,2 -11,1 0 0 N 1035,8 16 -
15.02.2020 02:00:00 -1,7 -10,6 8 4 N 1035,8 16 -
15.02.2020 01:00:00 -1,1 -10,0 5 3 N 1035,7 16 -
15.02.2020 00:00:00 -0,6 -11,1 9 5 - 1035,2 16 -
14.02.2020 23:00:00 0,6 -9,4 - - - 1034,8 16 -
14.02.2020 22:00:00 1,1 -9,4 9 5 - 1034,0 16 -

tt = temperature
td = dewpoint
ff = wind speed
dd = wind direction
ppp = reduced air pressure
vv = visibility
rr = precipitation

Next stations